Location: Kitego
(1.2667°N, 32.4667°E)
Time: 07:24:07
(UTC+00:00)

Daily predictions for brighter satellites

Satellite Brightness Start Highest point End
(mag) Time Altitude Azimuth Time Altitude Azimuth Time Altitude Azimuth
Cosmos 2058 Rocket 4.4 15:51:56 10° SSW 15:56:12 46° W 16:00:28 10° NNW
USA 229 DEB 4.1 15:49:45 10° NNW 15:57:30 87° ENE 16:05:17 10° SSE
USA 229 4.1 15:49:51 10° NNW 15:57:36 86° ENE 16:05:22 10° SSE
NOAA 11 4.3 15:55:41 10° SSE 16:01:03 57° ENE 16:06:23 10° N
USA 276 3.4 16:03:42 10° N 16:06:17 23° NE 16:08:53 10° ESE
Cosmos 1315 Rocket 2.7 16:03:43 10° S 16:07:37 75° E 16:11:31 10° N
Cosmos 1892 4.3 16:05:59 10° NE 16:08:23 16° E 16:10:47 10° SE
Centaur D-1AR AC-40 3.7 16:04:22 10° NW 16:11:09 22° N 16:14:21 11° NE
NOSS 3-1 (A) 4.4 16:02:42 10° NNW 16:11:34 86° ENE 16:20:33 10° SSE
Hubble Space Telescope 2.9 16:12:39 10° N 16:14:07 12° NNE 16:15:27 10° NE
Cosmos 1980 Rocket 2.2 16:08:32 10° SSW 16:14:13 88° WNW 16:19:51 10° NNE
ARIANE 5 R/B 1.2 16:12:08 10° W 16:14:33 46° S 16:16:00 15° ESE
Cosmos 1953 Rocket 3.6 16:12:42 10° N 16:17:10 89° W 16:21:40 10° S
S3M 4.0 16:11:17 10° S 16:17:25 90° WSW 16:23:31 10° N
FengYun 1-2 T 4.5 16:13:14 10° S 16:18:53 80° WSW 16:24:31 10° NNW
SWIFT 4.4 16:17:17 10° NNW 16:19:20 13° NNE 16:20:59 11° NE
Milstar 3 Cent rocket 3.9 16:03:18 10° WNW 16:21:07 85° SSW 16:28:57 10° ESE
CRYOSAT 2 4.5 16:20:50 10° NNE 16:25:32 52° E 16:30:16 10° S
Okean O Rocket 4.4 16:28:31 10° SSW 16:31:56 22° WSW 16:35:18 10° NW
USA 281 3.5 16:26:54 10° SSE 16:33:26 72° WSW 16:39:57 10° NNW
YAOGAN 1 3.2 16:30:04 10° SE 16:33:54 32° ENE 16:37:45 10° NNE
Cosmos-2242 3.2 16:33:56 10° SSE 16:37:59 43° E 16:40:34 20° NNE
CZ-2C R/B 3.6 16:33:56 10° SSE 16:39:21 43° ENE 16:44:48 10° N
Cosmos 2297 Rocket 3.4 16:35:08 10° NNE 16:38:07 21° NE 16:38:07 21° NE
Sylda 4400 3.6 16:38:07 10° WSW 16:40:24 34° SSE 16:41:17 28° SE
Cosmos 1812 Rocket 4.2 16:36:22 10° SSW 16:40:45 59° W 16:45:06 10° N
MOS 1 Rocket 4.2 16:36:57 10° N 16:41:56 58° W 16:47:11 10° SSW
In-Cosmos 22 Rocket 4.1 16:36:42 10° N 16:42:11 72° E 16:47:51 10° S
Cosmos 1340 2.5 16:38:27 10° N 16:42:12 84° E 16:45:59 10° S
Cosmos 1455 4.3 16:40:52 10° SSW 16:44:07 28° W 16:47:22 10° NNW
ATLAS 3B CENTAUR R/B 4.0 16:40:28 10° SSW 16:45:13 26° SE 16:48:59 20° ESE
Cosmos 2322 Rocket 3.0 16:41:10 10° SSE 16:45:56 28° ESE 16:46:20 28° E
SL-08 ROCKET BODY 4.4 16:44:14 10° N 16:50:21 70° E 16:56:31 10° S
BLOCK DM-SL R/B 2.1 16:47:11 10° W 16:51:31 57° S 16:51:57 49° SE
Cosmos 1939 Rocket 4.3 16:48:10 10° S 16:52:02 41° WSW 16:55:49 10° NNW
Ariane H10 2.2 16:51:01 10° W 16:53:24 80° S 16:53:40 69° ESE
Timation 2 Rocket 4.1 16:48:23 10° N 16:55:09 65° ENE 17:01:56 10° SSE
Helios 1A Rocket 3.3 16:55:01 10° S 16:59:07 64° WSW 17:03:12 10° NNW
Ariane H10+ 3.3 16:59:18 10° W 17:02:11 86° S 17:04:16 41° E
ARIANE 3 DEB 3.4 16:55:39 10° WSW 17:03:34 63° S 17:04:29 51° SE
Okean-O 3.0 17:01:02 10° S 17:05:25 64° WSW 17:09:48 10° NNW
ATLAS 5 CENTAUR R/B 2.6 17:06:28 10° W 17:06:55 16° W 17:06:55 16° W
Ariane 3 Deb 4.2 16:29:08 10° W 17:09:23 87° N 17:12:07 44° E
Cosmos 2219 3.2 17:04:09 10° N 17:09:44 57° ENE 17:15:20 10° SSE
Meteor 1-27 4.2 17:06:08 10° S 17:11:30 55° ESE 17:11:30 55° ESE
H-2A R/B 2.0 17:07:29 10° SSE 17:18:13 - N 17:12:30 63° E
CZ-4 R/B 2.6 17:12:13 10° S 17:16:02 41° WSW 17:19:46 10° NNW
ARIANE 5 R/B 4.4 17:12:49 10° WSW 17:17:21 60° S 17:23:47 30° ESE
Meteosat 1 Rocket2 4.3 17:14:34 10° SSW 17:17:02 29° S 17:17:02 29° S
CSL-04 Rocket 3.5 17:15:21 10° SSE 17:20:53 75° ENE 17:26:25 10° N
SL-16 R/B 2.1 17:15:57 10° SSW 17:21:37 86° WNW 17:22:38 62° N
CZ-2C R/B 2.3 17:19:42 10° WSW 17:23:03 43° WNW 17:23:03 43° WNW
CZ-2C R/B 3.6 17:29:32 18° NNW 17:33:09 44° WNW 17:38:06 10° SSW
Ariane H10+ 3.6 17:38:55 10° WSW 17:41:49 35° SW 17:41:49 35° SW
Cosmos 2360 Rocket 3.9 17:41:16 10° S 17:43:09 21° S 17:43:09 21° S
DELTA 2 R/B (1) 4.4 17:41:52 10° SW 17:45:44 47° SW 17:45:44 47° SW
Ariane H10+ 3.5 17:42:22 10° W 17:48:24 80° S 17:51:37 55° ESE
ARIANE 5 DEB (SYLDA) 3.7 17:37:28 10° W 17:47:45 68° WNW 17:47:45 68° WNW
Ariane H10-3 3.5 17:45:03 10° W 17:59:07 60° WSW 17:59:07 60° WSW
Centaur D-1A AC-31 3.6 17:58:50 10° WNW 18:40:08 55° SW 18:40:22 55° SW
